SCP
0 -0 -0 -0 -0 -0 -0 -0 -0 -0 -0 0 0 0 -0 -0 -0 -0 -0 -0 0 0 0 0 0 0 0 0 0 0 0 0 -0 -0 -0 -0 -0 -0 -0 -0 0 0 -0
0 -0 -0 -0 -0 -0 -0 -0 -0 -0 -0 -0 0 0 -0 0 -0 -0 -0 -0 -0 -0 -0 -0 0 -0 0 0 0 0 0 0 0 0 0 0 0 -0 -0 -0 -0 -0 -0
0 -0 -0 -0 -0 -0 -0 -0 -0 -0 -0 -0 -0 -0 -0 0 -0 -0 -0 -0 -0 -0 -0 0 0 -0 0 0 0 0 0 0 0 0 0 0 0 0 -0 -0 -0 -0 -0
0 -0 -0 -0 -0 -0 -0 -0 -0 -0 -0 -0 -0 -0 -0 -0 -0 -0 -0 -0 -0 -0 -0 0 0 -0 0 0 0 0 0 0 0 0 0 0 0 0 0 0 0 0 0
-0 -0 -0 -0 -0 -0 -0 -0 -0 -0 -0 -0 -0 -0 -0 -0 -0 -0 -0 0 0 0 0 -0 0 0 0 0 0 0 0 0 0 0 0 0 0 0 0 0 0 0 0
-0 -0 -0 -0 -0 -0 -0 -0 -0 -0 -0 -0 -0 -0 -0 -0 0 0 0 0 0 0 0 0 0 0 0 0 0 0 0 0 0 0 0 0 0 0 0 0 0 0 0
0 0 -0 -0 -0 -0 -0 -0 -0 -0 -0 -0 -0 -0 -0 -0 0 0 0 0 0 0 0 0 0 0 0 0 0 0 0 0 0 0 0 0 0 0 0 0 0 0 0
0 0 0 0 0 -0 -0 -0 -0 -0 -0 -0 0 0 -0 -0 0 0 0 0 0 0 0 0 0 0 0 0 0 0 0 0 0 0 0 0 0 0 0 0 0 0 0
0 0 -0 0 0 0 0 0 -0 -0 0 0 0 0 0 0 0 0 0 0 0 0 0 0 0 0 0 0 0 0 0 0 0 0 0 0 0 0 0 0 0 0 0
0 0 0 0 0 0 0 0 0 0 0 0 0 0 0 0 0 0 0 0 0 0 0 0 0 0 0 0 0 0 0 0 0 0 0 0 0 0 0 0 0 0 0
0 0 0 0 0 0 0 0 0 0 0 0 0 0 0 0 0 0 0 0 0 0 0 0 0 0 0 0 0 0 0 0 0 0 0 0 0 0 0 0 0 0 0
0 0 0 0 0 0 0 0 0 0 0 0 0 0 0 0 0 0 0 0 0 0 0 0 0 0 0 0 0 0 0 0 0 0 0 0 0 0 0 0 0 0 0
0 0 0 0 0 0 0 0 0 0 0 0 0 0 0 0 0 0 0 0 0 0 0 0 0 0 0 0 0 0 0 0 0 0 0 0 0 0 0 0 0 0 0
0 0 0 0 0 0 0 0 0 0 0 0 0 0 0 0 0 0 0 0 0 0 0 0 0 0 0 0 0 0 0 0 0 0 0 0 0 0 0 0 0 0 0
0 0 0 0 0 0 0 0 0 0 0 0 0 0 0 0 0 0 0 0 0 0 0 0 0 0 0 0 0 0 0 0 0 0 0 0 0 0 0 0 0 0 0
0 0 0 0 0 0 0 0 0 0 0 0 0 0 0 0 0 0 0 0 0 0 0 0 0 0 0 0 0 0 0 0 0 0 0 0 0 0 0 0 0 0 0
0 0 0 0 0 0 0 0 0 0 0 0 0 0 0 0 0 0 0 0 0 0 0 0 0 0 0 0 0 0 0 0 0 0 0 0 0 0 0 0 0 0 0
0 0 0 0 0 0 0 0 0 0 0 0 0 0 0 0 0 0 0 0 0 0 0 0 0 0 0 0 0 0 0 0 0 0 0 0 0 0 0 0 0 0 0
0 0 0 0 0 0 0 0 0 0 0 0 0 0 0 0 0 0 0 0 0 0 0 0 0 0 0 0 0 0 0 0 0 0 0 0 0 0 0 0 0 0 0
0 0 0 0 0 0 0 0 0 0 0 0 0 0 0 0 0 0 0 0 0 0 0 0 0 0 0 0 0 0 0 0 0 0 0 0 0 0 0 0 0 0 0
0 0 0 0 0 0 0 0 0 0 0 0 0 0 0 0 0 0 0 0 0 0 0 0 0 0 0 0 0 0 0 0 0 0 0 0 0 0 0 0 0 0 0
0 0 0 0 0 0 0 0 0 0 0 0 0 0 0 0 0 0 0 0 0 0 0 0 0 0 0 0 0 0 0 0 0 0 0 0 0 0 0 0 0 0 0
0 0 0 0 0 0 0 0 0 0 0 0 0 0 0 0 0 0 0 0 0 0 0 0 0 0 0 0 0 0 0 0 0 0 0 0 0 0 0 0 0 0 0
0 0 0 0 0 0 0 0 0 0 0 0 0 0 0 0 0 0 0 0 0 0 0 0 0 0 0 0 0 0 0 0 0 0 0 0 0 0 0 0 0 0 0
0 0 0 0 0 0 0 0 0 0 0 0 0 0 0 0 0 0 0 0 0 0 0 0 0 0 0 0 0 0 0 0 0 -0 0 -0 -0 -0 -0 0 0 0 0
0 0 0 0 0 0 0 0 0 0 0 0 0 0 0 0 0 0 0 0 0 0 0 0 0 0 0 0 0 0 0 -0 -0 -0 -0 -0 -0 -0 -0 -0 -0 0 0
Wind_Speed_500mb
26 39 36 33 30 28 27 26 23 19 17 15 13 12 11 10 10 9 7 10 12 13 12 12 13 12 11 10 9 11 14 14 15 16 16 16 17 17 15 16 17 17 15
21 39 36 34 30 27 25 26 22 19 13 9 8 7 10 11 6 7 4 8 9 10 9 11 12 10 9 9 8 9 11 12 11 10 8 11 14 15 17 18 16 15 11
19 34 34 33 30 27 25 28 24 19 15 11 8 6 6 4 3 6 7 6 11 13 11 10 10 10 8 6 3 5 8 9 6 7 6 4 6 9 10 14 18 21 19
15 29 31 27 29 27 24 25 25 21 14 11 9 8 7 7 7 3 5 12 15 14 12 10 10 9 7 4 1 1 5 4 3 4 7 10 6 4 5 6 4 8 12
13 23 28 27 27 25 23 23 23 19 15 11 9 7 9 6 5 6 12 17 14 12 12 11 11 10 7 4 2 4 5 4 2 2 4 9 12 9 4 5 6 4 3
10 16 25 27 26 26 23 21 20 19 16 13 11 12 17 15 7 8 13 18 19 15 14 10 11 9 8 4 3 4 3 5 2 0 1 6 9 12 10 8 5 4 5
8 13 20 26 26 25 23 22 21 20 17 15 13 14 19 9 6 8 15 19 18 12 9 10 10 9 7 5 1 2 3 1 1 2 3 7 8 10 12 15 6 5 7
7 8 13 23 27 26 26 24 24 23 20 18 15 15 16 17 13 13 18 15 16 11 8 9 9 10 6 3 2 1 0 2 2 2 5 6 11 13 12 13 12 12 10
5 9 11 15 23 28 28 26 27 25 23 21 19 18 19 20 19 17 13 11 12 10 12 13 11 9 5 3 2 2 1 2 0 2 5 7 11 15 16 16 16 16 13
6 7 10 13 18 26 29 28 26 24 23 23 22 23 23 23 21 21 15 8 11 8 11 12 12 10 6 4 2 0 1 3 4 5 7 10 12 17 19 17 16 14 12
10 11 13 14 17 22 28 30 30 28 27 27 26 25 24 25 23 24 18 11 7 13 13 12 10 9 8 7 6 5 4 5 6 7 8 11 11 13 16 18 16 16 13
17 19 20 21 22 23 25 28 30 32 31 30 27 28 26 24 20 20 17 19 14 12 16 16 13 12 11 11 10 8 8 8 9 10 11 12 12 12 14 15 15 17 16
22 26 29 30 29 28 25 24 28 28 28 28 26 25 26 25 21 23 22 22 22 18 19 18 16 15 14 16 16 14 13 13 13 13 14 14 14 15 16 16 15 16 18
8 13 22 34 36 32 27 22 19 23 27 25 26 29 27 26 25 23 23 23 23 19 23 26 26 21 18 17 18 20 19 19 18 18 19 19 18 17 17 17 17 18 18
16 18 21 26 36 37 31 22 16 13 16 22 27 27 27 28 27 26 25 26 24 21 23 28 24 25 22 20 21 22 23 24 23 22 22 23 22 21 20 20 19 19 19
19 24 24 23 30 38 33 24 18 13 10 14 21 32 29 26 26 25 25 27 25 25 25 26 25 27 22 21 23 25 26 28 28 28 27 26 26 26 25 24 23 22 19
18 18 15 10 16 31 32 29 26 17 12 9 9 18 17 24 22 26 25 27 23 24 21 20 21 28 24 24 24 27 28 29 30 31 32 32 31 30 28 28 29 27 25
17 16 15 11 22 34 36 31 25 19 16 12 13 16 20 23 25 21 19 18 18 8 11 19 28 28 29 31 32 32 32 34 35 36 36 36 37 36 34 32 32 32 32
23 24 24 23 31 35 34 30 25 19 13 9 6 4 9 13 9 6 14 6 8 9 15 19 26 37 37 37 41 43 42 42 41 40 39 40 41 41 40 38 39 38 37
27 31 37 35 35 34 30 27 22 16 14 10 3 1 3 7 12 5 11 10 14 16 19 25 29 34 38 47 49 54 58 53 49 45 46 45 42 41 42 43 42 44 44
31 34 40 39 38 32 28 24 19 11 14 5 2 4 4 7 9 12 14 13 19 27 31 36 36 38 41 47 48 44 34 19 24 29 31 34 36 39 40 42 44 46 47
40 40 37 36 32 28 23 21 19 15 15 10 10 3 4 6 11 14 15 15 16 16 17 20 22 23 24 28 34 37 26 21 10 21 24 25 24 25 27 32 36 41 48
54 53 49 46 43 41 38 36 32 30 32 26 26 23 23 19 16 15 15 15 14 16 18 20 20 23 24 23 24 21 17 16 63 26 42 20 25 35 40 42 40 40 40
53 50 47 44 43 41 37 34 31 33 31 32 28 26 24 22 22 21 22 23 25 26 25 30 31 31 33 35 27 20 17 27 22 39 44 57 43 41 42 41 46 53 55
47 41 38 37 37 37 33 29 27 30 32 30 27 21 22 22 22 23 23 24 25 27 28 27 28 30 33 33 37 37 33 31 30 40 69 75 82 71 63 51 44 43 44
40 36 33 31 33 30 26 28 26 27 28 20 19 16 18 18 19 21 23 25 27 28 31 33 34 33 33 32 32 36 37 38 41 44 55 79 88 83 82 77 67 57 52
Wind_Direction_500mb
168 175 175 164 163 167 169 169 171 168 161 148 130 119 102 93 88 96 66 38 34 33 40 38 43 44 50 62 67 83 91 98 98 102 102 90 92 83 100 104 96 86 85
174 178 180 172 167 169 176 181 175 167 166 157 139 120 108 91 52 23 24 32 31 29 34 35 37 36 39 52 65 91 102 104 100 97 102 92 89 94 89 95 105 107 95
172 182 184 176 176 174 173 176 181 187 181 174 172 158 147 123 18 352 34 48 22 22 15 18 24 15 23 37 50 96 112 111 101 82 58 71 102 103 107 93 97 95 90
159 181 187 182 181 181 178 177 181 184 196 201 193 190 174 151 145 148 20 12 14 6 4 7 1 354 2 11 350 129 121 122 122 52 50 56 64 112 139 130 139 110 97
154 177 190 190 187 191 191 193 197 204 206 208 207 227 253 273 280 320 341 344 349 345 341 346 350 343 343 328 270 234 166 173 189 345 45 34 52 84 69 207 224 238 257
150 168 192 197 197 197 197 203 203 209 218 222 243 261 272 293 305 330 329 323 324 333 330 333 337 338 352 343 288 251 217 186 194 294 331 16 26 52 28 5 273 277 273
149 172 191 201 206 205 201 204 212 217 224 230 247 261 280 319 304 331 329 315 309 325 309 327 331 344 2 15 274 204 186 223 159 101 306 334 339 1 4 11 18 335 311
156 185 194 203 210 216 219 212 211 221 225 232 238 244 270 296 324 329 337 328 316 320 325 333 341 348 357 26 56 84 173 189 174 230 283 314 319 334 349 345 334 330 310
186 191 206 214 219 220 225 222 213 219 228 233 240 237 249 274 299 314 339 337 334 341 348 349 350 345 340 352 52 92 185 243 218 251 283 302 306 315 330 334 329 325 319
205 208 210 219 225 228 227 225 221 218 229 238 241 241 243 261 277 293 297 323 16 5 357 353 349 342 324 324 344 327 287 302 293 291 294 284 291 298 315 326 330 326 325
217 214 226 236 234 232 233 233 226 226 228 236 237 238 251 265 272 288 286 273 346 6 355 346 346 325 301 297 296 292 288 287 290 288 286 285 290 299 310 317 322 319 318
232 234 235 228 237 241 236 234 233 237 235 236 237 241 248 258 263 276 294 310 318 351 357 356 344 321 293 277 272 270 273 276 277 280 283 286 288 293 296 306 316 313 316
242 241 245 244 236 234 241 238 232 239 239 242 243 248 253 251 264 272 283 298 311 334 337 333 341 329 308 292 284 280 277 279 282 282 281 283 287 292 297 303 304 304 310
288 268 255 248 238 229 228 237 239 232 234 243 236 244 249 256 264 273 282 294 303 313 317 326 324 322 308 292 282 281 282 282 281 283 285 285 285 286 289 293 297 304 308
311 298 278 253 235 223 211 220 227 229 234 241 235 242 250 264 268 279 281 291 304 301 300 312 316 315 302 294 291 284 278 277 278 277 279 283 285 285 285 286 288 294 303
318 307 294 273 237 212 199 199 200 207 209 222 226 234 235 245 254 269 284 293 288 288 292 305 319 312 297 291 291 286 280 275 273 273 272 273 276 280 282 284 285 286 283
342 332 318 276 206 190 180 185 193 191 184 184 210 230 237 241 251 254 264 261 262 264 281 301 323 328 322 305 295 288 282 277 274 271 269 268 268 271 274 278 281 279 272
27 26 36 96 149 167 171 173 175 184 187 201 229 239 248 253 252 248 241 258 263 233 296 304 308 310 315 315 311 291 287 280 277 274 272 272 270 267 266 266 267 271 272
59 66 77 100 124 139 151 159 165 162 171 167 210 71 229 246 278 287 225 184 163 280 305 306 303 301 300 302 304 303 286 281 278 277 278 275 274 273 271 269 269 267 266
79 81 96 100 112 125 138 143 147 142 120 113 113 349 330 42 87 79 43 355 348 332 319 315 311 309 308 302 301 297 294 288 283 282 278 275 275 273 270 268 267 270 274
105 108 106 107 104 106 112 119 113 98 89 79 332 44 14 358 357 338 334 325 321 313 310 299 293 291 293 297 306 314 323 317 279 268 271 277 272 270 270 267 264 263 263
110 106 107 106 113 118 125 124 122 117 110 112 104 105 35 346 314 318 329 337 335 327 312 310 311 317 326 333 334 342 341 350 36 317 294 292 281 283 281 277 273 270 266
103 101 101 101 100 98 99 100 102 102 96 96 88 85 76 67 57 48 41 35 22 14 10 5 356 351 350 356 356 0 343 325 325 312 316 320 300 290 285 283 280 279 275
97 93 91 89 91 91 94 95 106 106 108 97 89 81 75 66 58 51 42 35 26 23 16 14 11 8 3 359 0 352 323 310 326 316 304 306 307 304 301 295 285 280 277
106 101 101 105 108 110 113 109 107 102 93 90 85 75 64 51 41 35 27 20 11 10 9 3 359 359 356 351 348 344 339 332 324 312 308 308 309 308 304 300 297 290 285
121 117 117 118 113 110 108 103 95 91 92 92 81 63 52 41 31 23 15 8 3 358 355 354 353 349 347 343 339 336 334 333 325 318 309 309 310 313 308 305 303 302 298
Wind_Speed_850mb
26 39 36 33 30 28 27 26 23 19 17 15 13 12 11 10 10 9 7 10 12 13 12 12 13 12 11 10 9 11 14 14 15 16 16 16 17 17 15 16 17 17 15
21 39 36 34 30 27 25 26 22 19 13 9 8 7 10 11 6 7 4 8 9 10 9 11 12 10 9 9 8 9 11 12 11 10 8 11 14 15 17 18 16 15 11
19 34 34 33 30 27 25 28 24 19 15 11 8 6 6 4 3 6 7 6 11 13 11 10 10 10 8 6 3 5 8 9 6 7 6 4 6 9 10 14 18 21 19
15 29 31 27 29 27 24 25 25 21 14 11 9 8 7 7 7 3 5 12 15 14 12 10 10 9 7 4 1 1 5 4 3 4 7 10 6 4 5 6 4 8 12
13 23 28 27 27 25 23 23 23 19 15 11 9 7 9 6 5 6 12 17 14 12 12 11 11 10 7 4 2 4 5 4 2 2 4 9 12 9 4 5 6 4 3
10 16 25 27 26 26 23 21 20 19 16 13 11 12 17 15 7 8 13 18 19 15 14 10 11 9 8 4 3 4 3 5 2 0 1 6 9 12 10 8 5 4 5
8 13 20 26 26 25 23 22 21 20 17 15 13 14 19 9 6 8 15 19 18 12 9 10 10 9 7 5 1 2 3 1 1 2 3 7 8 10 12 15 6 5 7
7 8 13 23 27 26 26 24 24 23 20 18 15 15 16 17 13 13 18 15 16 11 8 9 9 10 6 3 2 1 0 2 2 2 5 6 11 13 12 13 12 12 10
5 9 11 15 23 28 28 26 27 25 23 21 19 18 19 20 19 17 13 11 12 10 12 13 11 9 5 3 2 2 1 2 0 2 5 7 11 15 16 16 16 16 13
6 7 10 13 18 26 29 28 26 24 23 23 22 23 23 23 21 21 15 8 11 8 11 12 12 10 6 4 2 0 1 3 4 5 7 10 12 17 19 17 16 14 12
10 11 13 14 17 22 28 30 30 28 27 27 26 25 24 25 23 24 18 11 7 13 13 12 10 9 8 7 6 5 4 5 6 7 8 11 11 13 16 18 16 16 13
17 19 20 21 22 23 25 28 30 32 31 30 27 28 26 24 20 20 17 19 14 12 16 16 13 12 11 11 10 8 8 8 9 10 11 12 12 12 14 15 15 17 16
22 26 29 30 29 28 25 24 28 28 28 28 26 25 26 25 21 23 22 22 22 18 19 18 16 15 14 16 16 14 13 13 13 13 14 14 14 15 16 16 15 16 18
8 13 22 34 36 32 27 22 19 23 27 25 26 29 27 26 25 23 23 23 23 19 23 26 26 21 18 17 18 20 19 19 18 18 19 19 18 17 17 17 17 18 18
16 18 21 26 36 37 31 22 16 13 16 22 27 27 27 28 27 26 25 26 24 21 23 28 24 25 22 20 21 22 23 24 23 22 22 23 22 21 20 20 19 19 19
19 24 24 23 30 38 33 24 18 13 10 14 21 32 29 26 26 25 25 27 25 25 25 26 25 27 22 21 23 25 26 28 28 28 27 26 26 26 25 24 23 22 19
18 18 15 10 16 31 32 29 26 17 12 9 9 18 17 24 22 26 25 27 23 24 21 20 21 28 24 24 24 27 28 29 30 31 32 32 31 30 28 28 29 27 25
17 16 15 11 22 34 36 31 25 19 16 12 13 16 20 23 25 21 19 18 18 8 11 19 28 28 29 31 32 32 32 34 35 36 36 36 37 36 34 32 32 32 32
23 24 24 23 31 35 34 30 25 19 13 9 6 4 9 13 9 6 14 6 8 9 15 19 26 37 37 37 41 43 42 42 41 40 39 40 41 41 40 38 39 38 37
27 31 37 35 35 34 30 27 22 16 14 10 3 1 3 7 12 5 11 10 14 16 19 25 29 34 38 47 49 54 58 53 49 45 46 45 42 41 42 43 42 44 44
31 34 40 39 38 32 28 24 19 11 14 5 2 4 4 7 9 12 14 13 19 27 31 36 36 38 41 47 48 44 34 19 24 29 31 34 36 39 40 42 44 46 47
40 40 37 36 32 28 23 21 19 15 15 10 10 3 4 6 11 14 15 15 16 16 17 20 22 23 24 28 34 37 26 21 10 21 24 25 24 25 27 32 36 41 48
54 53 49 46 43 41 38 36 32 30 32 26 26 23 23 19 16 15 15 15 14 16 18 20 20 23 24 23 24 21 17 16 63 26 42 20 25 35 40 42 40 40 40
53 50 47 44 43 41 37 34 31 33 31 32 28 26 24 22 22 21 22 23 25 26 25 30 31 31 33 35 27 20 17 27 22 39 44 57 43 41 42 41 46 53 55
47 41 38 37 37 37 33 29 27 30 32 30 27 21 22 22 22 23 23 24 25 27 28 27 28 30 33 33 37 37 33 31 30 40 69 75 82 71 63 51 44 43 44
40 36 33 31 33 30 26 28 26 27 28 20 19 16 18 18 19 21 23 25 27 28 31 33 34 33 33 32 32 36 37 38 41 44 55 79 88 83 82 77 67 57 52
Wind_Direction_850mb
168 175 175 164 163 167 169 169 171 168 161 148 130 119 102 93 88 96 66 38 34 33 40 38 43 44 50 62 67 83 91 98 98 102 102 90 92 83 100 104 96 86 85
174 178 180 172 167 169 176 181 175 167 166 157 139 120 108 91 52 23 24 32 31 29 34 35 37 36 39 52 65 91 102 104 100 97 102 92 89 94 89 95 105 107 95
172 182 184 176 176 174 173 176 181 187 181 174 172 158 147 123 18 352 34 48 22 22 15 18 24 15 23 37 50 96 112 111 101 82 58 71 102 103 107 93 97 95 90
159 181 187 182 181 181 178 177 181 184 196 201 193 190 174 151 145 148 20 12 14 6 4 7 1 354 2 11 350 129 121 122 122 52 50 56 64 112 139 130 139 110 97
154 177 190 190 187 191 191 193 197 204 206 208 207 227 253 273 280 320 341 344 349 345 341 346 350 343 343 328 270 234 166 173 189 345 45 34 52 84 69 207 224 238 257
150 168 192 197 197 197 197 203 203 209 218 222 243 261 272 293 305 330 329 323 324 333 330 333 337 338 352 343 288 251 217 186 194 294 331 16 26 52 28 5 273 277 273
149 172 191 201 206 205 201 204 212 217 224 230 247 261 280 319 304 331 329 315 309 325 309 327 331 344 2 15 274 204 186 223 159 101 306 334 339 1 4 11 18 335 311
156 185 194 203 210 216 219 212 211 221 225 232 238 244 270 296 324 329 337 328 316 320 325 333 341 348 357 26 56 84 173 189 174 230 283 314 319 334 349 345 334 330 310
186 191 206 214 219 220 225 222 213 219 228 233 240 237 249 274 299 314 339 337 334 341 348 349 350 345 340 352 52 92 185 243 218 251 283 302 306 315 330 334 329 325 319
205 208 210 219 225 228 227 225 221 218 229 238 241 241 243 261 277 293 297 323 16 5 357 353 349 342 324 324 344 327 287 302 293 291 294 284 291 298 315 326 330 326 325
217 214 226 236 234 232 233 233 226 226 228 236 237 238 251 265 272 288 286 273 346 6 355 346 346 325 301 297 296 292 288 287 290 288 286 285 290 299 310 317 322 319 318
232 234 235 228 237 241 236 234 233 237 235 236 237 241 248 258 263 276 294 310 318 351 357 356 344 321 293 277 272 270 273 276 277 280 283 286 288 293 296 306 316 313 316
242 241 245 244 236 234 241 238 232 239 239 242 243 248 253 251 264 272 283 298 311 334 337 333 341 329 308 292 284 280 277 279 282 282 281 283 287 292 297 303 304 304 310
288 268 255 248 238 229 228 237 239 232 234 243 236 244 249 256 264 273 282 294 303 313 317 326 324 322 308 292 282 281 282 282 281 283 285 285 285 286 289 293 297 304 308
311 298 278 253 235 223 211 220 227 229 234 241 235 242 250 264 268 279 281 291 304 301 300 312 316 315 302 294 291 284 278 277 278 277 279 283 285 285 285 286 288 294 303
318 307 294 273 237 212 199 199 200 207 209 222 226 234 235 245 254 269 284 293 288 288 292 305 319 312 297 291 291 286 280 275 273 273 272 273 276 280 282 284 285 286 283
342 332 318 276 206 190 180 185 193 191 184 184 210 230 237 241 251 254 264 261 262 264 281 301 323 328 322 305 295 288 282 277 274 271 269 268 268 271 274 278 281 279 272
27 26 36 96 149 167 171 173 175 184 187 201 229 239 248 253 252 248 241 258 263 233 296 304 308 310 315 315 311 291 287 280 277 274 272 272 270 267 266 266 267 271 272
59 66 77 100 124 139 151 159 165 162 171 167 210 71 229 246 278 287 225 184 163 280 305 306 303 301 300 302 304 303 286 281 278 277 278 275 274 273 271 269 269 267 266
79 81 96 100 112 125 138 143 147 142 120 113 113 349 330 42 87 79 43 355 348 332 319 315 311 309 308 302 301 297 294 288 283 282 278 275 275 273 270 268 267 270 274
105 108 106 107 104 106 112 119 113 98 89 79 332 44 14 358 357 338 334 325 321 313 310 299 293 291 293 297 306 314 323 317 279 268 271 277 272 270 270 267 264 263 263
110 106 107 106 113 118 125 124 122 117 110 112 104 105 35 346 314 318 329 337 335 327 312 310 311 317 326 333 334 342 341 350 36 317 294 292 281 283 281 277 273 270 266
103 101 101 101 100 98 99 100 102 102 96 96 88 85 76 67 57 48 41 35 22 14 10 5 356 351 350 356 356 0 343 325 325 312 316 320 300 290 285 283 280 279 275
97 93 91 89 91 91 94 95 106 106 108 97 89 81 75 66 58 51 42 35 26 23 16 14 11 8 3 359 0 352 323 310 326 316 304 306 307 304 301 295 285 280 277
106 101 101 105 108 110 113 109 107 102 93 90 85 75 64 51 41 35 27 20 11 10 9 3 359 359 356 351 348 344 339 332 324 312 308 308 309 308 304 300 297 290 285
121 117 117 118 113 110 108 103 95 91 92 92 81 63 52 41 31 23 15 8 3 358 355 354 353 349 347 343 339 336 334 333 325 318 309 309 310 313 308 305 303 302 298